TimeCST,TemperatureF,Dew PointF,Humidity,Sea Level PressureIn,VisibilityMPH,Wind Direction,Wind SpeedMPH,Gust SpeedMPH,PrecipitationIn,Events,Conditions,WindDirDegrees,DateUTC
12:53 AM,51.1,30.9,46,30.12,10.0,North,9.2,-,N/A,,Clear,360,2013-02-19 06:53:00
1:53 AM,48.9,30.9,50,30.15,10.0,North,6.9,-,N/A,,Clear,10,2013-02-19 07:53:00
2:53 AM,46.0,30.9,56,30.14,10.0,North,5.8,-,N/A,,Clear,360,2013-02-19 08:53:00
3:53 AM,45.0,30.0,56,30.16,10.0,North,6.9,-,N/A,,Clear,10,2013-02-19 09:53:00
4:53 AM,45.0,30.0,56,30.17,10.0,NNE,6.9,-,N/A,,Clear,30,2013-02-19 10:53:00
5:53 AM,43.0,28.0,56,30.17,10.0,NE,12.7,-,N/A,,Clear,50,2013-02-19 11:53:00
6:53 AM,41.0,27.0,57,30.22,10.0,NNE,5.8,-,N/A,,Clear,30,2013-02-19 12:53:00
7:53 AM,42.1,28.9,60,30.27,10.0,Calm,Calm,-,N/A,,Clear,0,2013-02-19 13:53:00
8:53 AM,46.9,26.1,44,30.33,10.0,NE,4.6,-,N/A,,Clear,40,2013-02-19 14:53:00
9:53 AM,50.0,21.0,32,30.32,10.0,NE,9.2,-,N/A,,Clear,50,2013-02-19 15:53:00
10:53 AM,53.1,19.9,27,30.32,10.0,NE,10.4,-,0.00,,Clear,50,2013-02-19 16:53:00
12:53 PM,60.1,21.0,22,30.29,10.0,ENE,9.2,-,N/A,,Clear,60,2013-02-19 18:53:00
1:53 PM,61.0,21.9,22,30.26,10.0,East,6.9,-,N/A,,Clear,90,2013-02-19 19:53:00
2:53 PM,62.1,21.0,21,30.24,10.0,NE,5.8,-,0.00,,Clear,40,2013-02-19 20:53:00
3:53 PM,62.1,21.9,21,30.21,10.0,NE,11.5,-,N/A,,Clear,50,2013-02-19 21:53:00
4:53 PM,61.0,21.9,22,30.19,10.0,East,12.7,-,N/A,,Clear,90,2013-02-19 22:53:00
6:53 PM,54.0,24.1,31,30.22,10.0,East,5.8,-,N/A,,Clear,100,2013-02-20 00:53:00
7:53 PM,55.0,23.0,29,30.22,10.0,East,6.9,-,N/A,,Clear,80,2013-02-20 01:53:00
8:53 PM,54.0,25.0,33,30.22,10.0,East,6.9,-,N/A,,Clear,90,2013-02-20 02:53:00
9:53 PM,53.1,24.1,32,30.22,10.0,East,9.2,-,N/A,,Clear,90,2013-02-20 03:53:00
10:53 PM,53.1,23.0,31,30.22,10.0,East,12.7,-,N/A,,Overcast,90,2013-02-20 04:53:00
11:53 PM,53.1,23.0,31,30.18,10.0,East,9.2,-,N/A,,Partly Cloudy,80,2013-02-20 05:53:00